Location: *
(43.4667°N, 11.6833°E)
Time: 17:31:49
(UTC+00:00)

Nadezhda 4 Rocket - Pass Details

Date: 19 July 2019
Orbit: 949 x 993 km, 82.9° (Epoch: 23 August)

Event Time Altitude Azimuth Distance (km) Brightness Sun altitude
Rises 19:57:03 0° 355° (N) 3,709 7.8 -10.7°
Reaches altitude 10° 19:59:39 10° 359° (N) 2,751 7.0 -11.1°
Maximum altitude 20:05:52 59° 79° (ENE) 1,123 4.2 -11.9°
Enters shadow 20:11:07 14° 156° (SSE) 2,394 5.5 -12.6°
